GEFSNE_prec_meanprecacc_006.txt.gz
Total_Precipitation_Accumulation
0.02 0.02 0.02 0.03 0.04 0.02 0.00 0.00 0.00 0.00 0.00 0.00 0.00 0.00 0.00 0.00 0.00 0.00 0.00 0.00 0.00 0.00 0.01 0.01 0.00 0.00 0.00 0.00 0.00 0.01 0.00 0.00 0.01 0.03 0.08 0.14 0.18 0.21
0.01 0.01 0.01 0.01 0.02 0.03 0.01 0.01 0.00 0.00 0.00 0.00 0.00 0.00 0.00 0.00 0.00 0.00 0.00 0.00 0.00 0.00 0.00 0.01 0.01 0.00 0.00 0.00 0.00 0.00 0.00 0.00 0.00 0.02 0.13 0.34 0.42 0.37
0.02 0.02 0.02 0.01 0.01 0.02 0.03 0.02 0.02 0.01 0.00 0.00 0.00 0.00 0.00 0.00 0.00 0.00 0.00 0.00 0.00 0.00 0.00 0.01 0.01 0.01 0.00 0.00 0.00 0.00 0.00 0.00 0.00 0.02 0.07 0.21 0.48 0.55
0.04 0.02 0.02 0.02 0.02 0.02 0.03 0.04 0.04 0.04 0.02 0.01 0.00 0.00 0.00 0.00 0.00 0.00 0.00 0.00 0.00 0.00 0.00 0.00 0.01 0.01 0.00 0.00 0.00 0.00 0.00 0.00 0.00 0.01 0.02 0.04 0.11 0.23
0.06 0.04 0.03 0.02 0.01 0.03 0.06 0.06 0.07 0.07 0.04 0.03 0.02 0.00 0.00 0.00 0.00 0.00 0.00 0.00 0.00 0.00 0.00 0.00 0.00 0.00 0.00 0.00 0.00 0.00 0.00 0.00 0.00 0.00 0.00 0.01 0.01 0.03
0.08 0.05 0.03 0.02 0.02 0.04 0.08 0.12 0.12 0.09 0.06 0.04 0.03 0.01 0.00 0.00 0.00 0.00 0.00 0.00 0.00 0.00 0.00 0.00 0.00 0.00 0.00 0.00 0.00 0.00 0.00 0.00 0.00 0.00 0.00 0.00 0.00 0.00
0.11 0.06 0.04 0.05 0.05 0.05 0.06 0.09 0.13 0.10 0.06 0.04 0.03 0.01 0.00 0.00 0.00 0.00 0.00 0.00 0.00 0.00 0.00 0.00 0.00 0.00 0.00 0.00 0.00 0.00 0.00 0.00 0.00 0.00 0.00 0.00 0.00 0.00
0.04 0.04 0.07 0.10 0.08 0.04 0.04 0.06 0.08 0.08 0.07 0.06 0.04 0.01 0.00 0.00 0.00 0.00 0.00 0.00 0.00 0.00 0.00 0.00 0.00 0.00 0.00 0.00 0.00 0.00 0.00 0.00 0.00 0.00 0.00 0.00 0.00 0.00
0.04 0.04 0.07 0.09 0.11 0.06 0.03 0.03 0.04 0.04 0.06 0.07 0.05 0.02 0.01 0.00 0.00 0.00 0.00 0.00 0.00 0.00 0.00 0.00 0.00 0.00 0.00 0.00 0.00 0.00 0.00 0.00 0.00 0.00 0.00 0.00 0.00 0.00
0.08 0.07 0.08 0.06 0.06 0.07 0.07 0.05 0.04 0.04 0.04 0.03 0.04 0.05 0.04 0.02 0.00 0.00 0.00 0.00 0.00 0.00 0.00 0.00 0.00 0.00 0.00 0.00 0.00 0.00 0.00 0.00 0.00 0.00 0.00 0.00 0.00 0.00
0.09 0.06 0.04 0.03 0.04 0.05 0.10 0.13 0.08 0.06 0.10 0.10 0.08 0.06 0.04 0.02 0.00 0.00 0.00 0.00 0.00 0.00 0.00 0.00 0.00 0.00 0.00 0.00 0.00 0.00 0.00 0.00 0.00 0.00 0.00 0.00 0.00 0.00
0.07 0.09 0.09 0.06 0.06 0.06 0.06 0.10 0.12 0.12 0.11 0.13 0.12 0.08 0.03 0.01 0.00 0.00 0.00 0.00 0.00 0.00 0.00 0.00 0.00 0.00 0.00 0.00 0.00 0.00 0.00 0.00 0.00 0.00 0.00 0.00 0.00 0.00
0.06 0.13 0.16 0.11 0.08 0.07 0.06 0.06 0.07 0.12 0.16 0.15 0.17 0.13 0.07 0.02 0.01 0.00 0.00 0.00 0.00 0.00 0.00 0.00 0.00 0.00 0.00 0.00 0.00 0.00 0.00 0.00 0.00 0.00 0.00 0.00 0.00 0.00
0.02 0.05 0.07 0.08 0.07 0.06 0.05 0.04 0.02 0.02 0.04 0.08 0.09 0.08 0.07 0.06 0.04 0.03 0.02 0.01 0.00 0.00 0.00 0.00 0.00 0.00 0.00 0.00 0.00 0.00 0.00 0.00 0.00 0.00 0.00 0.00 0.00 0.00
0.01 0.01 0.02 0.02 0.02 0.02 0.03 0.03 0.02 0.01 0.01 0.03 0.04 0.05 0.06 0.08 0.08 0.07 0.04 0.01 0.00 0.00 0.00 0.00 0.00 0.00 0.00 0.00 0.00 0.00 0.00 0.00 0.00 0.00 0.00 0.00 0.00 0.00
0.00 0.00 0.00 0.01 0.01 0.01 0.01 0.01 0.01 0.00 0.00 0.01 0.02 0.05 0.06 0.06 0.07 0.07 0.06 0.04 0.01 0.00 0.00 0.00 0.00 0.00 0.00 0.00 0.00 0.00 0.00 0.00 0.00 0.00 0.00 0.00 0.00 0.00
0.00 0.00 0.00 0.00 0.00 0.00 0.00 0.00 0.00 0.00 0.01 0.01 0.01 0.03 0.05 0.07 0.09 0.08 0.07 0.06 0.05 0.02 0.00 0.00 0.00 0.00 0.00 0.00 0.00 0.00 0.00 0.00 0.00 0.00 0.00 0.00 0.00 0.00
0.00 0.00 0.00 0.00 0.00 0.00 0.00 0.00 0.00 0.00 0.02 0.04 0.06 0.07 0.08 0.09 0.10 0.11 0.09 0.08 0.07 0.06 0.03 0.01 0.00 0.00 0.00 0.00 0.00 0.00 0.00 0.00 0.00 0.00 0.00 0.00 0.00 0.00
0.01 0.01 0.01 0.00 0.00 0.00 0.00 0.00 0.00 0.00 0.01 0.04 0.14 0.20 0.18 0.19 0.22 0.24 0.23 0.19 0.15 0.12 0.09 0.04 0.01 0.00 0.00 0.00 0.00 0.00 0.00 0.00 0.00 0.00 0.00 0.00 0.00 0.00
0.01 0.01 0.00 0.00 0.00 0.00 0.00 0.00 0.00 0.01 0.01 0.01 0.05 0.12 0.22 0.27 0.33 0.35 0.38 0.39 0.35 0.27 0.18 0.09 0.02 0.00 0.00 0.00 0.00 0.00 0.00 0.00 0.00 0.00 0.00 0.00 0.00 0.00
0.00 0.00 0.00 0.00 0.00 0.00 0.00 0.00 0.00 0.00 0.00 0.01 0.01 0.04 0.09 0.17 0.28 0.35 0.37 0.39 0.36 0.28 0.19 0.12 0.05 0.01 0.00 0.00 0.00 0.00 0.00 0.00 0.00 0.00 0.00 0.00 0.00 0.00
0.00 0.00 0.00 0.00 0.00 0.00 0.00 0.00 0.00 0.00 0.00 0.02 0.05 0.08 0.12 0.14 0.14 0.20 0.25 0.24 0.20 0.15 0.12 0.08 0.04 0.01 0.00 0.00 0.00 0.00 0.00 0.00 0.00 0.00 0.00 0.00 0.00 0.00
0.00 0.00 0.00 0.00 0.00 0.00 0.00 0.00 0.00 0.00 0.00 0.01 0.03 0.08 0.13 0.18 0.17 0.14 0.13 0.12 0.11 0.10 0.08 0.05 0.03 0.02 0.01 0.00 0.00 0.00 0.00 0.00 0.00 0.00 0.00 0.00 0.00 0.00

GEFSNE_prec_meanprecacc_012.txt.gz
Total_Precipitation_Accumulation
0.09 0.08 0.07 0.07 0.06 0.03 0.01 0.02 0.05 0.07 0.06 0.02 0.00 0.00 0.00 0.00 0.00 0.00 0.00 0.00 0.00 0.00 0.01 0.01 0.00 0.00 0.00 0.00 0.00 0.01 0.00 0.01 0.01 0.03 0.09 0.15 0.20 0.23
0.09 0.09 0.08 0.07 0.07 0.05 0.02 0.01 0.02 0.05 0.10 0.05 0.00 0.00 0.00 0.00 0.00 0.00 0.00 0.00 0.00 0.00 0.00 0.01 0.01 0.00 0.00 0.00 0.00 0.00 0.00 0.00 0.01 0.03 0.15 0.36 0.45 0.40
0.10 0.07 0.10 0.05 0.06 0.05 0.04 0.03 0.02 0.03 0.08 0.05 0.00 0.00 0.00 0.00 0.00 0.00 0.00 0.00 0.00 0.00 0.00 0.01 0.01 0.01 0.00 0.00 0.00 0.00 0.00 0.00 0.01 0.02 0.08 0.23 0.51 0.60
0.15 0.09 0.08 0.07 0.05 0.05 0.05 0.05 0.06 0.06 0.07 0.08 0.02 0.00 0.00 0.00 0.00 0.00 0.00 0.00 0.00 0.00 0.00 0.00 0.01 0.01 0.00 0.00 0.00 0.00 0.00 0.00 0.00 0.01 0.03 0.06 0.13 0.25
0.14 0.10 0.07 0.05 0.05 0.06 0.09 0.08 0.08 0.08 0.06 0.08 0.04 0.01 0.00 0.00 0.00 0.00 0.00 0.00 0.00 0.00 0.00 0.00 0.00 0.00 0.00 0.00 0.00 0.00 0.00 0.00 0.00 0.00 0.01 0.01 0.02 0.04
0.13 0.09 0.06 0.04 0.04 0.07 0.11 0.14 0.14 0.12 0.08 0.08 0.05 0.02 0.01 0.00 0.00 0.00 0.00 0.00 0.00 0.00 0.00 0.00 0.00 0.00 0.00 0.00 0.00 0.00 0.00 0.00 0.00 0.00 0.00 0.00 0.00 0.00
0.13 0.08 0.06 0.07 0.07 0.07 0.07 0.11 0.16 0.14 0.09 0.07 0.05 0.02 0.01 0.00 0.00 0.00 0.00 0.00 0.00 0.00 0.00 0.00 0.00 0.00 0.00 0.00 0.00 0.00 0.00 0.00 0.00 0.00 0.00 0.00 0.00 0.00
0.07 0.07 0.09 0.12 0.11 0.06 0.05 0.08 0.12 0.13 0.11 0.09 0.07 0.03 0.01 0.00 0.00 0.00 0.00 0.00 0.00 0.00 0.00 0.00 0.00 0.00 0.00 0.00 0.00 0.00 0.00 0.00 0.00 0.00 0.00 0.00 0.00 0.00
0.08 0.09 0.10 0.13 0.16 0.11 0.06 0.05 0.07 0.08 0.10 0.13 0.12 0.09 0.08 0.03 0.01 0.00 0.00 0.00 0.00 0.00 0.00 0.00 0.00 0.00 0.00 0.00 0.00 0.00 0.00 0.00 0.00 0.00 0.00 0.00 0.00 0.00
0.12 0.11 0.13 0.11 0.10 0.13 0.14 0.12 0.09 0.08 0.09 0.06 0.08 0.18 0.15 0.07 0.01 0.00 0.00 0.00 0.00 0.00 0.00 0.00 0.00 0.00 0.00 0.00 0.00 0.00 0.00 0.00 0.00 0.00 0.00 0.00 0.00 0.00
0.11 0.10 0.09 0.07 0.07 0.09 0.16 0.22 0.20 0.17 0.23 0.21 0.18 0.15 0.11 0.05 0.01 0.00 0.00 0.00 0.00 0.00 0.00 0.00 0.00 0.00 0.00 0.00 0.00 0.00 0.00 0.00 0.00 0.00 0.00 0.00 0.00 0.00
0.08 0.11 0.13 0.11 0.09 0.09 0.11 0.18 0.21 0.21 0.20 0.21 0.19 0.13 0.07 0.03 0.01 0.00 0.00 0.00 0.00 0.00 0.00 0.00 0.00 0.00 0.00 0.00 0.00 0.00 0.00 0.00 0.00 0.00 0.00 0.00 0.00 0.00
0.07 0.14 0.18 0.15 0.11 0.10 0.11 0.13 0.16 0.20 0.21 0.22 0.22 0.17 0.10 0.05 0.02 0.01 0.01 0.00 0.00 0.00 0.00 0.00 0.00 0.00 0.00 0.00 0.00 0.00 0.00 0.00 0.00 0.00 0.00 0.00 0.00 0.00
0.04 0.07 0.09 0.11 0.10 0.09 0.08 0.08 0.07 0.07 0.09 0.13 0.15 0.15 0.14 0.12 0.09 0.06 0.04 0.01 0.00 0.00 0.00 0.00 0.00 0.00 0.00 0.00 0.00 0.00 0.00 0.00 0.00 0.00 0.00 0.00 0.00 0.00
0.02 0.02 0.03 0.04 0.05 0.05 0.05 0.05 0.05 0.05 0.07 0.08 0.10 0.12 0.14 0.17 0.15 0.13 0.07 0.02 0.00 0.00 0.00 0.00 0.00 0.00 0.00 0.00 0.00 0.00 0.00 0.00 0.00 0.00 0.00 0.00 0.00 0.00
0.02 0.01 0.01 0.01 0.02 0.03 0.03 0.03 0.04 0.06 0.07 0.08 0.09 0.12 0.13 0.13 0.13 0.14 0.12 0.08 0.04 0.01 0.00 0.00 0.00 0.00 0.00 0.00 0.00 0.00 0.00 0.00 0.00 0.00 0.00 0.00 0.00 0.00
0.06 0.03 0.03 0.02 0.02 0.01 0.01 0.02 0.03 0.04 0.05 0.06 0.06 0.07 0.09 0.11 0.13 0.13 0.12 0.11 0.09 0.05 0.02 0.01 0.00 0.00 0.00 0.00 0.00 0.00 0.00 0.00 0.00 0.00 0.00 0.00 0.00 0.00
0.07 0.07 0.06 0.05 0.04 0.02 0.01 0.01 0.01 0.02 0.04 0.07 0.08 0.09 0.10 0.10 0.12 0.13 0.12 0.11 0.10 0.09 0.06 0.02 0.01 0.00 0.00 0.00 0.00 0.00 0.00 0.00 0.00 0.00 0.00 0.00 0.00 0.00
0.05 0.06 0.04 0.02 0.02 0.01 0.01 0.01 0.01 0.01 0.02 0.05 0.15 0.20 0.19 0.20 0.22 0.24 0.24 0.20 0.18 0.17 0.15 0.10 0.07 0.04 0.02 0.01 0.00 0.00 0.00 0.00 0.00 0.00 0.00 0.00 0.00 0.00
0.02 0.02 0.01 0.01 0.01 0.01 0.00 0.00 0.01 0.01 0.01 0.02 0.05 0.13 0.23 0.28 0.33 0.36 0.40 0.42 0.40 0.36 0.31 0.25 0.18 0.12 0.08 0.06 0.04 0.02 0.01 0.00 0.00 0.00 0.00 0.00 0.00 0.00
0.00 0.00 0.00 0.00 0.00 0.00 0.00 0.00 0.00 0.00 0.00 0.01 0.02 0.04 0.10 0.18 0.30 0.38 0.41 0.46 0.46 0.46 0.44 0.40 0.35 0.33 0.25 0.18 0.12 0.07 0.04 0.02 0.00 0.00 0.00 0.00 0.00 0.00
0.01 0.00 0.00 0.00 0.00 0.00 0.00 0.00 0.00 0.00 0.01 0.03 0.05 0.08 0.13 0.15 0.18 0.26 0.34 0.37 0.37 0.35 0.37 0.39 0.39 0.38 0.31 0.25 0.18 0.13 0.08 0.04 0.01 0.01 0.00 0.00 0.00 0.00
0.01 0.01 0.01 0.00 0.01 0.01 0.01 0.01 0.01 0.01 0.01 0.01 0.04 0.09 0.14 0.19 0.20 0.20 0.21 0.24 0.28 0.31 0.33 0.33 0.32 0.31 0.29 0.26 0.23 0.17 0.10 0.05 0.02 0.01 0.00 0.00 0.00 0.00

GEFSNE_prec_meanprecacc_018.txt.gz
Total_Precipitation_Accumulation
0.40 0.38 0.33 0.24 0.13 0.05 0.02 0.07 0.19 0.26 0.26 0.16 0.04 0.00 0.00 0.00 0.00 0.00 0.00 0.00 0.00 0.00 0.01 0.01 0.00 0.00 0.00 0.00 0.00 0.01 0.01 0.01 0.01 0.04 0.09 0.16 0.21 0.24
0.42 0.43 0.42 0.35 0.27 0.15 0.07 0.04 0.08 0.20 0.29 0.24 0.10 0.00 0.00 0.00 0.00 0.00 0.00 0.00 0.00 0.00 0.00 0.01 0.01 0.00 0.00 0.00 0.00 0.00 0.00 0.00 0.01 0.03 0.15 0.36 0.45 0.41
0.45 0.44 0.44 0.36 0.35 0.26 0.17 0.11 0.09 0.15 0.26 0.21 0.09 0.02 0.01 0.00 0.00 0.00 0.00 0.00 0.00 0.00 0.00 0.01 0.01 0.01 0.00 0.00 0.00 0.00 0.00 0.00 0.01 0.03 0.08 0.23 0.51 0.60
0.49 0.42 0.40 0.35 0.33 0.29 0.24 0.19 0.16 0.14 0.21 0.24 0.11 0.04 0.01 0.00 0.00 0.00 0.00 0.00 0.00 0.00 0.00 0.00 0.01 0.01 0.00 0.00 0.00 0.00 0.00 0.00 0.00 0.01 0.03 0.06 0.13 0.26
0.41 0.38 0.33 0.28 0.26 0.26 0.25 0.20 0.17 0.15 0.18 0.25 0.15 0.05 0.02 0.00 0.00 0.00 0.00 0.00 0.00 0.00 0.00 0.00 0.00 0.00 0.00 0.00 0.00 0.00 0.00 0.00 0.00 0.00 0.01 0.01 0.02 0.04
0.27 0.24 0.21 0.18 0.17 0.19 0.22 0.24 0.23 0.22 0.23 0.28 0.21 0.08 0.03 0.02 0.00 0.00 0.00 0.00 0.00 0.00 0.00 0.00 0.00 0.00 0.00 0.00 0.00 0.00 0.00 0.00 0.00 0.00 0.00 0.00 0.00 0.00
0.18 0.13 0.12 0.13 0.13 0.13 0.13 0.19 0.28 0.30 0.27 0.27 0.25 0.14 0.04 0.02 0.01 0.00 0.00 0.00 0.00 0.00 0.00 0.00 0.00 0.00 0.00 0.00 0.00 0.00 0.00 0.00 0.00 0.00 0.00 0.00 0.00 0.00
0.09 0.09 0.11 0.14 0.12 0.07 0.07 0.11 0.21 0.28 0.29 0.30 0.30 0.23 0.12 0.05 0.03 0.02 0.00 0.00 0.00 0.00 0.00 0.00 0.00 0.00 0.00 0.00 0.00 0.00 0.00 0.00 0.00 0.00 0.00 0.00 0.00 0.00
0.09 0.11 0.12 0.13 0.17 0.12 0.08 0.06 0.08 0.11 0.20 0.31 0.34 0.30 0.34 0.22 0.10 0.03 0.01 0.00 0.01 0.00 0.00 0.00 0.00 0.00 0.00 0.00 0.00 0.00 0.00 0.00 0.00 0.00 0.00 0.00 0.00 0.00
0.13 0.12 0.14 0.12 0.11 0.15 0.19 0.21 0.20 0.16 0.20 0.14 0.20 0.40 0.41 0.31 0.17 0.10 0.05 0.03 0.03 0.00 0.00 0.00 0.00 0.00 0.00 0.00 0.00 0.00 0.00 0.00 0.00 0.00 0.00 0.00 0.00 0.00
0.11 0.11 0.11 0.10 0.11 0.16 0.26 0.37 0.36 0.32 0.42 0.41 0.36 0.34 0.32 0.26 0.19 0.15 0.10 0.05 0.03 0.00 0.00 0.00 0.00 0.00 0.00 0.00 0.00 0.00 0.00 0.00 0.00 0.00 0.00 0.00 0.00 0.00
0.11 0.14 0.18 0.14 0.16 0.14 0.19 0.30 0.33 0.32 0.32 0.33 0.30 0.22 0.14 0.11 0.11 0.09 0.09 0.08 0.07 0.03 0.00 0.00 0.00 0.00 0.00 0.00 0.00 0.00 0.00 0.00 0.00 0.00 0.00 0.00 0.00 0.00
0.16 0.22 0.24 0.21 0.14 0.12 0.15 0.20 0.22 0.27 0.31 0.33 0.33 0.27 0.16 0.09 0.07 0.05 0.05 0.06 0.10 0.11 0.03 0.01 0.00 0.00 0.00 0.00 0.00 0.00 0.00 0.00 0.00 0.00 0.00 0.00 0.00 0.00
0.18 0.18 0.17 0.18 0.13 0.10 0.09 0.12 0.10 0.10 0.17 0.25 0.27 0.26 0.23 0.21 0.18 0.13 0.10 0.07 0.07 0.10 0.05 0.02 0.01 0.00 0.00 0.00 0.00 0.00 0.00 0.00 0.00 0.00 0.00 0.00 0.00 0.00
0.13 0.13 0.12 0.08 0.06 0.06 0.06 0.06 0.06 0.08 0.13 0.16 0.20 0.23 0.25 0.28 0.28 0.26 0.20 0.14 0.10 0.07 0.04 0.03 0.02 0.01 0.00 0.00 0.00 0.00 0.00 0.00 0.00 0.00 0.00 0.00 0.00 0.00
0.08 0.04 0.03 0.02 0.03 0.05 0.05 0.04 0.05 0.10 0.13 0.16 0.19 0.24 0.27 0.27 0.27 0.27 0.28 0.26 0.21 0.17 0.12 0.08 0.05 0.03 0.02 0.01 0.00 0.00 0.00 0.00 0.00 0.00 0.00 0.00 0.00 0.00
0.23 0.13 0.08 0.06 0.05 0.05 0.05 0.05 0.05 0.06 0.08 0.11 0.14 0.16 0.19 0.25 0.28 0.26 0.24 0.24 0.23 0.20 0.18 0.16 0.12 0.08 0.04 0.03 0.02 0.00 0.00 0.00 0.00 0.00 0.00 0.00 0.00 0.00
0.24 0.28 0.27 0.27 0.25 0.22 0.17 0.11 0.08 0.08 0.10 0.14 0.16 0.17 0.19 0.21 0.26 0.28 0.25 0.23 0.21 0.19 0.15 0.14 0.15 0.14 0.11 0.07 0.03 0.01 0.01 0.00 0.00 0.00 0.00 0.00 0.00 0.00
0.19 0.28 0.27 0.24 0.21 0.18 0.16 0.14 0.12 0.09 0.09 0.12 0.21 0.27 0.26 0.27 0.30 0.32 0.30 0.25 0.23 0.22 0.21 0.16 0.13 0.12 0.12 0.10 0.07 0.06 0.04 0.03 0.01 0.00 0.00 0.00 0.00 0.00
0.14 0.17 0.16 0.12 0.08 0.05 0.04 0.04 0.05 0.05 0.05 0.06 0.09 0.16 0.28 0.35 0.41 0.43 0.45 0.46 0.43 0.39 0.33 0.26 0.19 0.14 0.11 0.10 0.08 0.05 0.04 0.04 0.03 0.02 0.01 0.00 0.00 0.00
0.05 0.05 0.05 0.05 0.04 0.03 0.02 0.02 0.02 0.02 0.03 0.03 0.04 0.06 0.12 0.23 0.36 0.45 0.48 0.52 0.50 0.49 0.46 0.41 0.36 0.35 0.27 0.22 0.17 0.11 0.06 0.06 0.05 0.03 0.02 0.02 0.01 0.01
0.04 0.04 0.03 0.03 0.03 0.03 0.03 0.03 0.03 0.03 0.03 0.05 0.08 0.11 0.16 0.18 0.21 0.29 0.38 0.42 0.40 0.37 0.38 0.39 0.40 0.40 0.34 0.30 0.25 0.19 0.15 0.12 0.11 0.10 0.07 0.05 0.03 0.02
0.04 0.04 0.04 0.03 0.02 0.03 0.03 0.03 0.03 0.03 0.03 0.03 0.05 0.11 0.17 0.22 0.23 0.22 0.23 0.26 0.30 0.33 0.34 0.35 0.34 0.33 0.32 0.32 0.31 0.28 0.22 0.18 0.16 0.16 0.15 0.15 0.11 0.06

GEFSNE_prec_meanprecacc_024.txt.gz
Total_Precipitation_Accumulation
0.59 0.57 0.52 0.45 0.39 0.29 0.24 0.24 0.29 0.30 0.29 0.18 0.07 0.02 0.01 0.00 0.00 0.00 0.00 0.00 0.00 0.00 0.01 0.01 0.00 0.00 0.00 0.00 0.00 0.01 0.01 0.01 0.02 0.04 0.09 0.16 0.22 0.24
0.65 0.68 0.67 0.62 0.59 0.49 0.36 0.27 0.23 0.29 0.33 0.26 0.12 0.03 0.03 0.02 0.01 0.00 0.00 0.00 0.00 0.00 0.00 0.01 0.01 0.00 0.00 0.00 0.00 0.00 0.00 0.00 0.01 0.03 0.15 0.37 0.45 0.41
0.63 0.68 0.74 0.70 0.73 0.67 0.57 0.45 0.33 0.31 0.37 0.27 0.11 0.04 0.03 0.02 0.01 0.00 0.00 0.00 0.00 0.00 0.00 0.01 0.01 0.01 0.00 0.00 0.00 0.00 0.00 0.00 0.01 0.03 0.08 0.23 0.52 0.60
0.59 0.58 0.63 0.63 0.68 0.69 0.67 0.61 0.52 0.39 0.37 0.35 0.16 0.07 0.04 0.02 0.01 0.01 0.00 0.00 0.00 0.00 0.00 0.00 0.01 0.01 0.00 0.00 0.00 0.00 0.00 0.00 0.00 0.01 0.03 0.06 0.13 0.26
0.45 0.45 0.46 0.49 0.54 0.62 0.65 0.60 0.55 0.47 0.39 0.39 0.25 0.11 0.06 0.03 0.01 0.01 0.01 0.00 0.00 0.00 0.00 0.00 0.00 0.00 0.00 0.00 0.00 0.00 0.00 0.00 0.00 0.00 0.01 0.02 0.02 0.04
0.29 0.28 0.29 0.30 0.34 0.42 0.51 0.55 0.55 0.51 0.46 0.44 0.33 0.15 0.10 0.06 0.02 0.01 0.00 0.00 0.00 0.00 0.00 0.00 0.00 0.00 0.00 0.00 0.00 0.00 0.00 0.00 0.00 0.00 0.00 0.00 0.00 0.00
0.18 0.14 0.14 0.19 0.22 0.25 0.29 0.38 0.50 0.53 0.48 0.46 0.39 0.24 0.11 0.07 0.04 0.02 0.01 0.00 0.00 0.00 0.00 0.00 0.00 0.00 0.00 0.00 0.00 0.00 0.00 0.00 0.00 0.00 0.00 0.00 0.00 0.00
0.09 0.09 0.11 0.16 0.18 0.15 0.15 0.21 0.32 0.39 0.42 0.42 0.41 0.32 0.19 0.11 0.08 0.05 0.02 0.01 0.00 0.00 0.00 0.00 0.00 0.00 0.00 0.00 0.00 0.00 0.00 0.00 0.00 0.00 0.00 0.00 0.00 0.00
0.11 0.12 0.14 0.14 0.18 0.14 0.12 0.13 0.15 0.17 0.26 0.38 0.40 0.36 0.39 0.27 0.15 0.07 0.03 0.02 0.01 0.00 0.00 0.00 0.00 0.00 0.00 0.00 0.00 0.00 0.00 0.00 0.00 0.00 0.00 0.00 0.00 0.00
0.14 0.14 0.16 0.14 0.12 0.16 0.20 0.23 0.22 0.19 0.24 0.18 0.23 0.43 0.45 0.35 0.22 0.15 0.11 0.08 0.05 0.01 0.00 0.00 0.00 0.00 0.00 0.00 0.00 0.00 0.00 0.00 0.00 0.00 0.00 0.00 0.00 0.00
0.13 0.13 0.14 0.12 0.14 0.19 0.30 0.40 0.38 0.34 0.45 0.44 0.39 0.37 0.36 0.31 0.27 0.24 0.19 0.13 0.07 0.02 0.01 0.00 0.00 0.00 0.00 0.00 0.00 0.00 0.00 0.00 0.00 0.00 0.00 0.00 0.00 0.00
0.15 0.20 0.24 0.20 0.21 0.19 0.21 0.32 0.34 0.33 0.33 0.35 0.31 0.24 0.17 0.15 0.17 0.16 0.18 0.18 0.14 0.07 0.03 0.02 0.00 0.00 0.00 0.00 0.00 0.00 0.00 0.00 0.00 0.00 0.00 0.00 0.00 0.00
0.24 0.31 0.31 0.28 0.19 0.15 0.16 0.21 0.23 0.28 0.32 0.34 0.35 0.28 0.17 0.12 0.11 0.11 0.11 0.13 0.17 0.16 0.08 0.05 0.02 0.01 0.00 0.00 0.00 0.00 0.00 0.00 0.00 0.00 0.00 0.00 0.00 0.00
0.26 0.26 0.24 0.24 0.16 0.12 0.10 0.13 0.12 0.12 0.18 0.27 0.29 0.27 0.25 0.24 0.22 0.18 0.15 0.13 0.12 0.16 0.13 0.09 0.06 0.03 0.01 0.01 0.00 0.00 0.00 0.00 0.00 0.00 0.00 0.00 0.00 0.00
0.18 0.17 0.16 0.11 0.08 0.07 0.07 0.08 0.07 0.09 0.14 0.18 0.22 0.25 0.28 0.31 0.31 0.30 0.25 0.19 0.15 0.14 0.12 0.13 0.12 0.11 0.07 0.05 0.03 0.02 0.01 0.00 0.00 0.00 0.00 0.00 0.00 0.00
0.11 0.06 0.05 0.03 0.05 0.07 0.07 0.05 0.07 0.12 0.16 0.18 0.21 0.25 0.29 0.30 0.30 0.31 0.33 0.32 0.29 0.27 0.24 0.22 0.21 0.20 0.20 0.17 0.12 0.07 0.05 0.03 0.01 0.01 0.00 0.00 0.00 0.00
0.25 0.15 0.10 0.08 0.07 0.09 0.10 0.08 0.08 0.10 0.12 0.14 0.15 0.17 0.20 0.26 0.29 0.29 0.27 0.29 0.29 0.28 0.30 0.32 0.32 0.31 0.29 0.28 0.27 0.22 0.15 0.10 0.06 0.04 0.03 0.02 0.01 0.00
0.27 0.33 0.33 0.34 0.32 0.29 0.25 0.18 0.15 0.14 0.14 0.16 0.17 0.18 0.19 0.21 0.27 0.29 0.27 0.26 0.24 0.23 0.22 0.24 0.27 0.30 0.31 0.27 0.22 0.21 0.22 0.20 0.17 0.14 0.10 0.06 0.03 0.02
0.28 0.40 0.39 0.35 0.30 0.26 0.23 0.21 0.18 0.14 0.12 0.14 0.23 0.28 0.27 0.28 0.30 0.33 0.31 0.27 0.25 0.25 0.24 0.21 0.19 0.20 0.22 0.21 0.20 0.20 0.19 0.18 0.17 0.15 0.13 0.10 0.07 0.05
0.27 0.32 0.29 0.24 0.17 0.11 0.07 0.06 0.07 0.06 0.05 0.06 0.09 0.17 0.28 0.35 0.41 0.43 0.46 0.48 0.45 0.40 0.34 0.28 0.21 0.16 0.15 0.14 0.12 0.10 0.11 0.13 0.14 0.12 0.10 0.09 0.08 0.07
0.12 0.11 0.11 0.09 0.06 0.05 0.04 0.03 0.02 0.03 0.03 0.03 0.04 0.06 0.12 0.23 0.36 0.45 0.49 0.53 0.51 0.50 0.47 0.42 0.38 0.37 0.29 0.24 0.19 0.12 0.08 0.09 0.08 0.07 0.06 0.07 0.08 0.07
0.05 0.05 0.05 0.04 0.04 0.03 0.03 0.03 0.03 0.03 0.03 0.05 0.08 0.11 0.16 0.18 0.21 0.29 0.39 0.42 0.40 0.38 0.39 0.40 0.41 0.41 0.36 0.32 0.26 0.20 0.16 0.13 0.13 0.14 0.11 0.09 0.07 0.06
0.05 0.05 0.04 0.03 0.02 0.03 0.04 0.03 0.03 0.03 0.03 0.03 0.06 0.11 0.17 0.22 0.23 0.22 0.23 0.27 0.30 0.34 0.35 0.35 0.35 0.34 0.34 0.34 0.33 0.30 0.24 0.19 0.18 0.19 0.21 0.26 0.22 0.12

GEFSNE_prec_meanprecacc_030.txt.gz
Total_Precipitation_Accumulation
0.72 0.74 0.66 0.58 0.50 0.38 0.32 0.32 0.36 0.35 0.31 0.19 0.07 0.02 0.01 0.00 0.00 0.00 0.00 0.00 0.00 0.00 0.01 0.01 0.00 0.00 0.00 0.00 0.00 0.01 0.01 0.01 0.02 0.04 0.10 0.17 0.23 0.25
0.75 0.81 0.80 0.77 0.72 0.60 0.46 0.36 0.31 0.36 0.37 0.28 0.14 0.05 0.04 0.03 0.02 0.00 0.00 0.00 0.00 0.00 0.00 0.01 0.01 0.00 0.00 0.00 0.00 0.00 0.00 0.00 0.01 0.03 0.15 0.37 0.46 0.42
0.67 0.75 0.85 0.86 0.89 0.82 0.72 0.59 0.46 0.42 0.45 0.34 0.15 0.07 0.06 0.05 0.04 0.02 0.01 0.00 0.00 0.00 0.00 0.01 0.01 0.01 0.00 0.00 0.00 0.00 0.00 0.00 0.01 0.03 0.09 0.24 0.52 0.61
0.61 0.62 0.69 0.75 0.82 0.86 0.85 0.80 0.70 0.56 0.53 0.48 0.26 0.11 0.08 0.06 0.04 0.03 0.02 0.01 0.00 0.00 0.00 0.00 0.01 0.01 0.00 0.00 0.00 0.00 0.00 0.00 0.01 0.02 0.04 0.06 0.14 0.27
0.45 0.46 0.49 0.54 0.61 0.71 0.79 0.79 0.77 0.71 0.63 0.59 0.41 0.22 0.13 0.08 0.04 0.02 0.01 0.01 0.01 0.00 0.00 0.00 0.00 0.00 0.00 0.00 0.00 0.00 0.00 0.00 0.00 0.00 0.01 0.02 0.02 0.05
0.29 0.28 0.30 0.32 0.37 0.47 0.61 0.72 0.78 0.79 0.78 0.73 0.55 0.32 0.21 0.14 0.06 0.03 0.02 0.01 0.01 0.00 0.00 0.00 0.00 0.00 0.00 0.00 0.00 0.00 0.00 0.00 0.00 0.00 0.00 0.00 0.00 0.01
0.18 0.14 0.15 0.20 0.24 0.28 0.35 0.48 0.65 0.73 0.75 0.76 0.66 0.45 0.26 0.18 0.11 0.07 0.04 0.03 0.01 0.00 0.00 0.00 0.00 0.00 0.00 0.00 0.00 0.00 0.00 0.00 0.00 0.00 0.00 0.00 0.00 0.00
0.10 0.09 0.11 0.17 0.18 0.16 0.18 0.26 0.40 0.52 0.60 0.66 0.68 0.56 0.39 0.26 0.20 0.14 0.07 0.03 0.01 0.01 0.00 0.00 0.00 0.00 0.00 0.00 0.00 0.00 0.00 0.00 0.00 0.00 0.00 0.00 0.00 0.00
0.12 0.12 0.14 0.14 0.18 0.15 0.13 0.15 0.18 0.22 0.33 0.48 0.55 0.55 0.59 0.45 0.30 0.18 0.10 0.05 0.03 0.02 0.01 0.00 0.00 0.00 0.00 0.00 0.00 0.00 0.00 0.00 0.00 0.00 0.00 0.00 0.00 0.00
0.16 0.15 0.17 0.14 0.13 0.16 0.21 0.23 0.24 0.22 0.29 0.23 0.29 0.51 0.56 0.49 0.35 0.26 0.20 0.13 0.07 0.02 0.01 0.00 0.00 0.00 0.00 0.00 0.00 0.00 0.00 0.00 0.00 0.00 0.00 0.00 0.00 0.00
0.15 0.15 0.15 0.13 0.15 0.20 0.30 0.41 0.39 0.35 0.46 0.46 0.43 0.42 0.42 0.38 0.35 0.32 0.26 0.18 0.11 0.04 0.03 0.01 0.00 0.00 0.00 0.00 0.00 0.00 0.00 0.00 0.00 0.00 0.00 0.00 0.00 0.00
0.19 0.23 0.27 0.22 0.23 0.20 0.22 0.32 0.35 0.34 0.33 0.36 0.33 0.26 0.19 0.19 0.23 0.23 0.25 0.24 0.19 0.10 0.06 0.04 0.01 0.01 0.00 0.00 0.00 0.00 0.00 0.00 0.00 0.00 0.00 0.00 0.00 0.00
0.28 0.35 0.35 0.33 0.23 0.18 0.17 0.21 0.24 0.29 0.32 0.34 0.35 0.29 0.18 0.14 0.13 0.14 0.16 0.19 0.22 0.21 0.12 0.09 0.05 0.04 0.02 0.01 0.01 0.01 0.01 0.00 0.00 0.00 0.00 0.00 0.00 0.00
0.32 0.32 0.29 0.28 0.20 0.14 0.12 0.14 0.13 0.13 0.19 0.27 0.30 0.28 0.26 0.24 0.22 0.19 0.17 0.15 0.16 0.20 0.19 0.15 0.11 0.08 0.05 0.04 0.03 0.03 0.02 0.01 0.01 0.00 0.00 0.00 0.00 0.00
0.24 0.22 0.19 0.14 0.10 0.08 0.09 0.09 0.08 0.10 0.15 0.19 0.23 0.26 0.28 0.31 0.32 0.30 0.26 0.20 0.17 0.16 0.14 0.16 0.16 0.15 0.12 0.09 0.07 0.06 0.06 0.05 0.03 0.02 0.01 0.01 0.00 0.00
0.16 0.11 0.08 0.05 0.06 0.08 0.08 0.06 0.08 0.13 0.17 0.19 0.22 0.26 0.30 0.30 0.31 0.32 0.33 0.33 0.30 0.28 0.25 0.24 0.23 0.23 0.23 0.21 0.17 0.12 0.11 0.10 0.09 0.09 0.07 0.05 0.03 0.02
0.29 0.19 0.13 0.10 0.09 0.11 0.12 0.11 0.11 0.13 0.15 0.16 0.17 0.19 0.21 0.26 0.30 0.29 0.28 0.29 0.29 0.28 0.30 0.33 0.33 0.32 0.31 0.31 0.31 0.27 0.23 0.21 0.19 0.17 0.15 0.11 0.08 0.06
0.29 0.35 0.36 0.37 0.34 0.32 0.28 0.22 0.18 0.17 0.17 0.19 0.19 0.19 0.20 0.22 0.27 0.30 0.27 0.26 0.25 0.23 0.22 0.24 0.27 0.31 0.31 0.28 0.24 0.23 0.26 0.26 0.26 0.27 0.24 0.19 0.14 0.13
0.31 0.45 0.45 0.42 0.36 0.31 0.28 0.25 0.21 0.16 0.14 0.16 0.24 0.29 0.28 0.28 0.31 0.33 0.31 0.27 0.25 0.25 0.24 0.21 0.19 0.20 0.23 0.22 0.21 0.22 0.21 0.21 0.22 0.21 0.20 0.19 0.16 0.17
0.31 0.37 0.36 0.33 0.26 0.18 0.13 0.10 0.10 0.08 0.07 0.07 0.10 0.17 0.28 0.35 0.41 0.43 0.47 0.48 0.45 0.40 0.34 0.28 0.21 0.17 0.16 0.15 0.13 0.11 0.13 0.14 0.16 0.15 0.14 0.14 0.13 0.14
0.14 0.14 0.14 0.13 0.11 0.08 0.05 0.04 0.03 0.03 0.03 0.04 0.04 0.06 0.12 0.23 0.36 0.45 0.49 0.53 0.52 0.50 0.48 0.42 0.38 0.38 0.29 0.25 0.20 0.13 0.09 0.11 0.11 0.10 0.09 0.10 0.11 0.11
0.06 0.06 0.05 0.05 0.04 0.04 0.04 0.03 0.03 0.03 0.03 0.05 0.08 0.11 0.16 0.18 0.21 0.30 0.39 0.42 0.40 0.38 0.39 0.40 0.41 0.41 0.36 0.33 0.28 0.22 0.17 0.15 0.15 0.17 0.14 0.12 0.09 0.08
0.05 0.05 0.05 0.03 0.03 0.03 0.04 0.03 0.03 0.03 0.03 0.03 0.06 0.12 0.17 0.23 0.23 0.22 0.24 0.27 0.31 0.34 0.36 0.36 0.36 0.35 0.36 0.36 0.36 0.33 0.27 0.22 0.21 0.22 0.23 0.30 0.25 0.15

GEFSNE_prec_meanprecacc_036.txt.gz
Total_Precipitation_Accumulation
0.75 0.78 0.72 0.66 0.60 0.48 0.43 0.44 0.47 0.44 0.39 0.24 0.09 0.03 0.01 0.00 0.00 0.00 0.00 0.00 0.00 0.00 0.01 0.01 0.00 0.00 0.00 0.00 0.00 0.01 0.01 0.01 0.02 0.04 0.10 0.17 0.23 0.26
0.77 0.84 0.84 0.82 0.80 0.69 0.56 0.48 0.42 0.45 0.45 0.34 0.18 0.06 0.05 0.03 0.02 0.00 0.00 0.00 0.00 0.00 0.00 0.01 0.01 0.00 0.00 0.00 0.00 0.00 0.00 0.00 0.01 0.04 0.16 0.37 0.46 0.43
0.69 0.77 0.87 0.90 0.94 0.89 0.81 0.68 0.56 0.51 0.54 0.42 0.22 0.11 0.08 0.06 0.05 0.02 0.01 0.00 0.00 0.00 0.00 0.01 0.01 0.01 0.00 0.00 0.00 0.00 0.00 0.00 0.01 0.03 0.09 0.24 0.52 0.61
0.62 0.63 0.72 0.80 0.88 0.93 0.92 0.88 0.81 0.68 0.65 0.61 0.37 0.20 0.13 0.10 0.06 0.04 0.03 0.01 0.00 0.00 0.00 0.00 0.01 0.01 0.00 0.00 0.00 0.00 0.00 0.00 0.01 0.02 0.04 0.06 0.14 0.27
0.46 0.47 0.51 0.58 0.68 0.79 0.87 0.87 0.88 0.84 0.76 0.72 0.56 0.37 0.24 0.14 0.09 0.06 0.04 0.03 0.02 0.01 0.00 0.00 0.00 0.00 0.00 0.00 0.00 0.00 0.00 0.00 0.00 0.00 0.01 0.02 0.02 0.05
0.29 0.29 0.31 0.34 0.41 0.53 0.67 0.79 0.88 0.92 0.94 0.90 0.72 0.49 0.37 0.26 0.15 0.09 0.07 0.04 0.03 0.02 0.01 0.00 0.00 0.00 0.00 0.00 0.00 0.00 0.00 0.00 0.00 0.00 0.00 0.00 0.00 0.01
0.18 0.14 0.15 0.20 0.25 0.30 0.37 0.53 0.72 0.84 0.88 0.91 0.82 0.62 0.44 0.35 0.25 0.18 0.13 0.09 0.05 0.02 0.01 0.01 0.00 0.00 0.00 0.01 0.00 0.00 0.00 0.00 0.00 0.00 0.00 0.00 0.00 0.00
0.11 0.09 0.12 0.17 0.19 0.17 0.19 0.28 0.43 0.58 0.69 0.79 0.83 0.71 0.56 0.46 0.40 0.32 0.22 0.14 0.09 0.05 0.03 0.02 0.01 0.00 0.01 0.01 0.01 0.00 0.00 0.00 0.00 0.00 0.00 0.00 0.00 0.00
0.15 0.15 0.15 0.15 0.18 0.15 0.14 0.16 0.20 0.24 0.36 0.55 0.66 0.69 0.77 0.65 0.48 0.37 0.29 0.23 0.19 0.15 0.09 0.06 0.03 0.01 0.01 0.00 0.00 0.00 0.00 0.00 0.00 0.00 0.00 0.00 0.00 0.00
0.21 0.18 0.19 0.16 0.13 0.17 0.21 0.25 0.25 0.23 0.30 0.25 0.33 0.57 0.65 0.62 0.51 0.43 0.39 0.33 0.25 0.17 0.13 0.09 0.07 0.04 0.02 0.01 0.00 0.00 0.00 0.00 0.00 0.00 0.00 0.00 0.00 0.00
0.21 0.19 0.19 0.16 0.17 0.22 0.31 0.43 0.41 0.35 0.47 0.47 0.45 0.46 0.48 0.45 0.42 0.42 0.39 0.33 0.26 0.18 0.14 0.09 0.06 0.05 0.02 0.01 0.01 0.00 0.00 0.00 0.00 0.00 0.00 0.00 0.00 0.00
0.26 0.29 0.34 0.28 0.27 0.23 0.23 0.35 0.39 0.36 0.34 0.36 0.33 0.27 0.21 0.22 0.27 0.29 0.36 0.39 0.35 0.26 0.19 0.14 0.09 0.07 0.05 0.03 0.01 0.01 0.00 0.00 0.00 0.00 0.00 0.00 0.00 0.00
0.37 0.43 0.42 0.41 0.27 0.21 0.19 0.22 0.26 0.30 0.33 0.36 0.37 0.30 0.20 0.16 0.15 0.17 0.20 0.25 0.32 0.32 0.23 0.17 0.13 0.11 0.08 0.05 0.04 0.03 0.02 0.02 0.01 0.01 0.01 0.01 0.01 0.00
0.40 0.38 0.36 0.37 0.26 0.18 0.14 0.17 0.15 0.14 0.19 0.29 0.32 0.30 0.28 0.27 0.24 0.21 0.19 0.18 0.20 0.27 0.28 0.22 0.17 0.14 0.11 0.09 0.07 0.06 0.05 0.04 0.04 0.03 0.03 0.03 0.03 0.02
0.30 0.29 0.25 0.19 0.14 0.11 0.11 0.11 0.10 0.11 0.17 0.22 0.26 0.28 0.30 0.32 0.33 0.31 0.27 0.22 0.18 0.17 0.16 0.17 0.19 0.18 0.16 0.13 0.10 0.09 0.09 0.09 0.08 0.07 0.06 0.05 0.04 0.04
0.22 0.19 0.14 0.10 0.09 0.10 0.10 0.08 0.09 0.14 0.19 0.22 0.24 0.27 0.31 0.32 0.32 0.33 0.34 0.34 0.32 0.29 0.27 0.25 0.24 0.25 0.26 0.24 0.20 0.15 0.14 0.14 0.13 0.13 0.12 0.11 0.10 0.09
0.32 0.23 0.17 0.14 0.12 0.14 0.15 0.14 0.13 0.16 0.18 0.19 0.19 0.21 0.23 0.28 0.32 0.30 0.28 0.30 0.31 0.30 0.32 0.34 0.34 0.33 0.32 0.32 0.33 0.30 0.28 0.26 0.23 0.22 0.19 0.16 0.13 0.12
0.31 0.37 0.38 0.40 0.38 0.35 0.30 0.24 0.20 0.19 0.20 0.22 0.22 0.22 0.23 0.24 0.29 0.31 0.28 0.28 0.27 0.25 0.24 0.25 0.28 0.32 0.32 0.29 0.25 0.26 0.30 0.31 0.31 0.30 0.26 0.21 0.17 0.16
0.34 0.48 0.48 0.44 0.38 0.34 0.31 0.27 0.23 0.17 0.15 0.18 0.26 0.31 0.29 0.30 0.32 0.34 0.32 0.28 0.26 0.26 0.25 0.22 0.20 0.22 0.25 0.24 0.24 0.23 0.24 0.26 0.26 0.24 0.22 0.20 0.17 0.18
0.32 0.38 0.37 0.35 0.29 0.21 0.15 0.12 0.12 0.10 0.08 0.08 0.10 0.18 0.29 0.36 0.42 0.45 0.48 0.49 0.46 0.42 0.36 0.29 0.23 0.19 0.18 0.18 0.15 0.13 0.15 0.17 0.20 0.19 0.18 0.17 0.15 0.16
0.15 0.15 0.15 0.15 0.14 0.10 0.07 0.05 0.04 0.04 0.04 0.04 0.04 0.07 0.13 0.24 0.37 0.46 0.50 0.54 0.53 0.51 0.49 0.44 0.39 0.38 0.31 0.27 0.23 0.16 0.13 0.14 0.14 0.12 0.12 0.13 0.13 0.13
0.07 0.06 0.06 0.05 0.05 0.05 0.04 0.04 0.04 0.03 0.03 0.05 0.08 0.12 0.17 0.19 0.22 0.30 0.40 0.44 0.42 0.39 0.40 0.42 0.43 0.42 0.38 0.35 0.32 0.26 0.20 0.17 0.18 0.20 0.16 0.15 0.12 0.11
0.05 0.05 0.05 0.03 0.03 0.03 0.04 0.04 0.03 0.03 0.03 0.03 0.06 0.12 0.18 0.23 0.24 0.23 0.25 0.28 0.32 0.36 0.37 0.38 0.38 0.37 0.38 0.39 0.39 0.36 0.29 0.25 0.24 0.25 0.27 0.35 0.31 0.20